Location: Recife
(8.0585°S, 34.8848°W)
Time: 02:30:18
(UTC-03:00)

Tiros 1 - Pass Details

Date: 14 April 2026
Orbit: 618 x 648 km, 48.4° (Epoch: 15 May)

Event Time Altitude Azimuth Distance (km) Brightness Sun altitude
Rises 19:00:13 0° 343° (NNW) 2,938 10.8 -26.0°
Reaches altitude 10° 19:02:51 10° 356° (N) 2,034 9.8 -26.6°
Enters shadow 19:03:39 14° 2° (N) 1,795 9.4 -26.8°
